Vertical_Velocity
3 3 3 4 4 4 4 4 3 3 2 3 2 1 -0 1 4 6 7 6 4 3 2 1 -0 0 1 2 2 2 1 -1 -2 -2 -1 1 2 2 2 1 1 1 1 1 -0 -1 -0 0 1 1 1 0 1 1 1 1 0 0 0 1 0 0 0 1 1 1 1 1 1
6 7 7 7 6 5 4 3 2 2 2 4 3 1 1 2 5 7 7 5 3 2 1 1 0 -0 -0 -0 2 3 3 1 -0 -0 0 1 2 3 3 1 1 1 1 1 -0 -1 -1 -1 0 0 0 0 1 2 1 -0 -0 0 1 1 0 -0 0 1 1 1 1 1 1
5 6 7 6 4 3 2 0 -0 1 3 4 4 3 3 4 7 8 6 3 2 0 -1 -2 -2 -2 -2 -1 1 3 3 3 2 2 2 2 3 3 3 2 1 0 0 0 -1 -1 -1 -1 -0 -0 -0 -0 1 1 0 -1 -0 1 1 1 -0 0 0 1 1 1 1 0 1
-3 -2 -1 -1 0 -0 -1 -2 -1 1 2 4 4 4 4 6 8 7 5 3 2 -1 -3 -5 -5 -5 -3 -1 1 2 3 3 3 4 4 4 4 4 4 3 1 -0 -1 0 -0 -1 -1 -1 -0 -0 -0 -0 -0 -0 -0 -0 0 1 1 1 0 0 1 1 1 1 0 0 1
-7 -7 -6 -4 -3 -3 -3 -2 -0 1 2 5 5 4 5 7 8 6 4 3 1 0 -1 -4 -6 -6 -5 -2 0 2 3 3 4 4 5 5 5 5 4 4 1 -1 -1 1 0 0 -0 -0 -0 -0 -0 -0 0 -0 -0 -0 1 1 1 1 1 1 1 1 1 1 1 1 1
-5 -5 -4 -4 -5 -5 -5 -2 0 3 5 8 6 4 4 6 6 5 3 1 2 3 3 0 -1 -1 -1 -2 -0 2 3 4 4 4 4 4 4 5 4 3 1 -0 -0 1 1 1 0 0 0 -0 0 0 0 0 0 1 1 1 1 2 1 1 1 2 1 1 1 1 2
-1 -2 -3 -5 -6 -6 -5 -2 2 6 9 9 6 4 3 4 5 3 2 2 3 4 3 2 3 5 5 4 2 3 3 4 3 2 2 2 3 3 3 2 1 1 0 0 1 1 1 1 1 0 0 1 0 1 1 2 1 1 2 3 0 1 1 1 1 1 2 2 2
0 -2 -3 -4 -4 -4 -4 -2 2 6 9 8 6 4 3 3 2 2 1 2 1 0 1 3 3 4 5 6 5 4 4 3 1 0 0 1 1 1 1 1 2 1 0 0 1 0 0 1 1 0 0 1 1 1 2 2 0 0 2 2 0 -0 0 0 1 1 1 1 2
0 -1 -2 -2 -3 -3 -3 -2 1 4 6 7 5 4 3 1 1 1 1 1 -2 -2 -0 1 1 2 3 3 4 4 5 4 1 -0 -0 1 1 1 1 1 2 1 1 1 0 -0 0 1 1 1 1 1 1 1 2 2 0 -0 0 1 -0 -1 -1 1 1 1 1 1 2
0 0 0 -1 -3 -3 -2 -1 -0 2 4 5 4 4 2 0 -0 0 1 -1 -1 -1 -2 -4 -2 0 1 -0 1 2 4 6 4 2 1 1 1 1 1 2 2 2 2 1 0 0 0 1 1 1 1 1 1 1 1 2 1 -0 -1 -1 -1 -1 -0 0 1 1 0 1 1
0 1 0 -2 -2 -2 -1 -1 -1 0 2 4 4 3 3 1 1 1 1 1 0 -2 -5 -5 -2 -1 -1 -1 0 1 3 5 6 5 3 1 1 1 1 2 2 2 2 1 1 1 1 1 0 0 1 1 1 1 1 2 1 0 -1 -1 -0 0 0 -0 -0 0 0 1 0
0 0 -1 -1 -1 -1 -2 -3 -2 -1 1 1 3 4 5 4 4 4 4 3 0 -2 -2 -0 -1 -3 -2 1 2 2 3 4 5 5 4 2 2 2 2 2 2 2 1 1 2 1 1 1 0 0 0 0 1 1 1 1 1 0 -0 -0 1 1 0 -1 -1 -1 -0 1 1
-0 -1 -1 -1 -0 -1 -2 -3 -2 -1 -1 -1 1 3 5 6 7 8 8 5 3 3 3 3 -1 -2 -0 3 4 4 4 4 4 4 3 2 3 3 3 3 2 2 2 1 2 2 1 1 1 0 -0 -0 0 1 1 1 1 0 0 1 2 1 -0 -1 -2 -1 -0 2 1
-1 -1 -1 -0 0 -1 -1 -1 -1 -1 -2 -2 -1 1 2 3 5 7 8 7 6 7 6 3 1 1 2 4 4 4 4 4 4 3 1 0 2 3 4 4 4 3 2 2 2 1 1 0 1 0 -0 -1 -0 0 0 0 0 -0 0 2 3 1 -1 -2 -2 -1 0 2 1
-1 -1 -1 0 0 -0 -1 -0 -0 -1 -1 -1 -1 -1 -1 -1 0 2 4 4 4 4 4 3 1 0 1 3 2 2 3 4 3 2 0 -1 0 1 2 3 4 4 3 2 1 1 0 0 0 0 -0 -0 -0 -0 -0 -0 -0 -0 0 1 0 -1 -1 -2 -2 -1 1 2 2
-1 -0 0 0 -1 -1 -0 1 1 1 0 -1 -0 -1 -2 -3 -2 -1 0 -0 0 1 1 0 -1 -1 -1 0 0 1 2 2 2 1 0 -1 -0 0 1 2 3 3 2 2 1 0 -0 -1 -0 0 0 -0 -0 -0 -0 -1 -1 -0 0 0 -1 -1 -2 -3 -2 0 2 3 2
0 1 1 -0 -1 -0 1 1 1 1 0 -0 0 -1 -2 -3 -2 -1 -1 -2 -1 -0 -1 -2 -1 -1 -1 -3 -1 1 2 1 1 1 1 -1 -1 -1 -0 0 1 1 1 1 -0 -1 -1 -2 -1 -1 -1 -1 -0 -0 -1 -1 -1 -1 -0 -1 -2 -2 -2 -2 -1 1 3 4 2
1 1 1 0 0 1 1 1 0 0 0 1 1 -0 -1 -1 -1 -1 -1 -1 0 -0 -1 -1 0 -0 -2 -3 -1 1 1 0 1 1 1 0 -1 -1 -1 -1 -1 -1 -1 -1 -1 -2 -2 -2 -3 -2 -2 -1 -1 -1 -1 -1 -1 -1 -1 -2 -2 -2 -1 -0 1 2 3 3 1
2 2 2 1 1 1 1 1 0 1 1 2 1 1 0 0 -0 -0 -1 -0 -0 -1 -1 -0 1 -0 -1 -2 0 1 1 0 1 1 1 1 -0 -1 -2 -2 -2 -2 -2 -3 -3 -2 -2 -3 -3 -3 -3 -2 -2 -2 -1 -1 -2 -2 -2 -2 -2 -1 0 1 1 1 2 2 1
2 2 2 1 2 2 1 1 1 1 2 3 2 2 1 1 1 0 -1 -2 -1 -1 -1 -1 -1 -1 -2 -1 1 1 1 1 1 1 1 0 0 -0 -1 -1 -2 -3 -3 -3 -3 -3 -3 -3 -3 -3 -3 -3 -3 -3 -3 -2 -2 -2 -2 -1 -1 -0 0 1 1 1 1 1 0
1 1 1 2 2 1 1 1 1 1 2 1 1 1 1 1 1 -1 -2 -2 -1 -2 -3 -3 -3 -2 -2 -1 0 0 0 1 1 1 -0 0 0 -0 -0 1 -1 -2 -3 -3 -3 -3 -3 -3 -3 -3 -3 -4 -4 -4 -4 -3 -3 -2 -1 -0 -0 -0 -0 0 0 -0 -0 -0 -1
0 1 1 1 0 0 0 1 1 1 0 -0 0 1 1 0 -1 -2 -2 -0 -1 -2 -4 -4 -3 -3 -2 -2 -1 -1 0 1 0 -1 -1 0 -0 -1 -0 1 -1 -2 -2 -2 -2 -2 -2 -2 -3 -3 -3 -4 -4 -5 -5 -4 -4 -3 -2 -1 -1 -2 -1 -1 -1 -2 -2 -2 -2
0 0 -0 -1 -1 -1 -0 -0 -0 -1 -1 -0 0 0 -0 -1 -2 -1 -0 0 -1 -2 -3 -2 -2 -2 -3 -3 -2 -1 -1 -0 -1 -1 -1 0 -1 -1 -1 -0 -2 -2 -2 -2 -2 -2 -2 -2 -2 -2 -2 -3 -4 -4 -4 -4 -4 -4 -3 -3 -3 -3 -3 -3 -3 -3 -3 -3 -2
-0 -1 -1 -1 -1 -1 -1 -1 -1 -1 -1 -1 -0 -1 -1 -1 -1 -0 -0 -1 -1 -1 -1 -1 -1 -3 -3 -3 -2 -2 -2 -1 -1 -1 -1 -0 -1 -1 -1 -1 -1 -2 -2 -1 -1 -2 -3 -2 -2 -2 -2 -2 -3 -3 -3 -3 -4 -4 -4 -4 -4 -4 -4 -4 -4 -4 -5 -5 -3
-1 -1 -1 -1 -2 -2 -1 -1 -2 -2 -1 -1 -0 -0 -1 -1 0 0 -0 -1 -1 -0 -0 -1 -2 -2 -2 -2 -2 -2 -2 -2 -1 -1 -1 -1 -1 -1 -0 -1 -2 -2 -2 -1 -2 -3 -3 -2 -1 -2 -2 -2 -2 -2 -2 -2 -3 -3 -3 -3 -4 -4 -4 -4 -5 -5 -5 -5 -2
-2 -1 -1 -2 -2 -2 -2 -2 -2 -2 -1 -1 -1 -1 -1 -0 0 0 -0 -1 -1 -1 -1 -1 -1 -1 -1 -1 -1 -1 -1 -1 -1 -1 -0 -1 -0 -0 -0 -1 -2 -2 -2 -1 -2 -2 -2 -2 -2 -2 -2 -2 -1 -1 -1 -2 -2 -2 -2 -3 -3 -3 -3 -4 -4 -5 -5 -3 0
-2 -2 -2 -2 -2 -2 -2 -2 -1 -1 -1 -1 -1 -1 -1 0 1 0 -1 -1 -1 -0 -0 -1 -1 -1 -1 -1 -1 -1 -1 -1 -0 -0 -0 0 0 0 -1 -1 -1 -1 -2 -2 -2 -2 -2 -2 -2 -2 -2 -1 -1 -1 -1 -2 -1 -2 -2 -3 -2 -2 -3 -4 -4 -4 -3 -1 1
-2 -1 -1 -1 -1 -2 -1 -1 -1 -1 -2 -1 -1 -1 -0 0 -0 -1 -1 -1 -0 -0 -1 -2 -1 -0 0 -1 -2 -2 -1 -0 -0 -0 -0 0 0 -1 -1 -1 -1 -1 -2 -2 -2 -2 -2 -2 -2 -2 -1 -1 -1 -1 -1 -1 -2 -2 -3 -3 -2 -2 -2 -2 -2 -2 -1 -0 1
-1 -0 -0 -1 -1 -1 -0 -0 -1 -1 -0 0 0 0 0 -0 -1 -1 -0 0 -1 -2 -2 -2 -1 0 -1 -3 -2 -1 -0 -1 -1 -1 -1 -1 -1 -1 -1 -1 -1 -2 -2 -1 -2 -2 -2 -2 -2 -2 -1 -1 -0 -0 -1 -1 -2 -2 -3 -3 -1 -1 -1 -1 -1 -1 -1 -1 -0
0 0 0 0 0 0 0 -0 -0 0 1 1 1 1 0 0 0 0 0 -0 -1 -2 -1 -0 0 -1 -3 -4 -1 -1 -1 -3 -2 -2 -2 -2 -2 -2 -2 -1 -2 -2 -2 -1 -2 -2 -1 -1 -1 -1 -1 -0 -0 -0 -0 -1 -2 -2 -2 -1 0 0 -1 -2 -1 -1 -1 -1 -1
1 1 1 1 1 1 0 0 1 1 1 1 1 1 1 1 1 0 0 -0 -1 -1 -0 0 -2 -3 -3 -2 -1 -2 -4 -4 -2 -2 -3 -3 -3 -2 -2 -1 -2 -2 -2 -1 -2 -2 -1 -1 -1 -1 -0 -0 0 -0 -0 -1 -1 -1 -1 0 1 0 -1 -2 -2 -2 -2 -1 -1
1 1 1 1 1 0 0 0 0 0 0 0 0 0 0 -0 -0 -0 -1 -1 -1 -1 -1 -2 -3 -3 -2 -1 -2 -4 -4 -3 -3 -3 -3 -3 -3 -2 -2 -2 -2 -2 -1 -1 -2 -2 -1 -1 -1 -1 -0 -0 0 -0 -1 -0 -1 -1 0 1 1 -0 -1 -2 -2 -2 -2 -1 -2
1 1 1 0 0 -0 -0 -0 -1 -0 -0 0 -0 -0 -1 -1 -1 -1 -2 -2 -2 -2 -2 -2 -2 -2 -2 -2 -3 -4 -4 -3 -3 -3 -4 -3 -3 -3 -3 -3 -3 -2 -1 -1 -2 -2 -2 -1 -1 -1 -1 -0 -0 -0 -0 -0 -0 0 1 1 0 0 -0 -1 -2 -2 -1 -1 -1
0 0 0 -0 -0 -0 -0 -1 -0 -0 -0 -0 -1 -1 -1 -2 -2 -2 -2 -2 -2 -2 -2 -2 -2 -3 -3 -3 -3 -4 -4 -3 -4 -4 -4 -4 -4 -4 -4 -4 -3 -2 -1 -2 -3 -2 -2 -1 -1 -1 -1 -1 -0 -0 -0 -0 0 1 1 0 1 1 0 -1 -1 -1 0 1 1
0 0 0 0 0 0 0 -0 0 0 0 -0 -1 -1 -2 -2 -2 -2 -2 -1 -1 -2 -2 -2 -2 -3 -3 -3 -3 -3 -4 -4 -4 -5 -5 -4 -4 -4 -4 -4 -3 -2 -2 -3 -3 -2 -2 -2 -2 -1 -1 -0 -0 -0 -0 -0 0 1 1 1 1 1 0 -0 -0 1 2 3 2
1 1 1 0 0 0 0 0 0 0 0 -0 -1 -1 -2 -2 -2 -2 -1 -1 -2 -2 -3 -3 -2 -3 -3 -3 -3 -4 -4 -5 -5 -5 -4 -4 -4 -4 -4 -4 -2 -2 -2 -3 -3 -2 -2 -2 -2 -1 -0 0 -0 -0 -0 0 1 1 2 2 2 1 1 1 1 2 3 4 3
0 0 0 -0 -1 -1 -1 -1 -1 -1 -1 -1 -1 -1 -2 -2 -2 -1 -1 -1 -1 -2 -2 -2 -2 -3 -3 -3 -3 -4 -4 -4 -4 -4 -3 -3 -3 -3 -4 -3 -2 -2 -2 -2 -2 -2 -2 -2 -1 -0 1 1 0 0 0 1 1 2 2 2 2 1 2 2 3 3 4 4 3
-0 -1 -1 -1 -2 -2 -2 -2 -1 -1 -1 -1 -2 -2 -2 -1 -1 -1 -1 -1 -1 -1 -1 -1 -2 -3 -3 -2 -3 -3 -3 -2 -2 -2 -1 -1 -1 -2 -2 -3 -2 -2 -1 -1 -1 -1 -1 -1 -0 0 1 1 0 0 1 1 2 2 3 3 2 3 3 4 4 4 3 3 3
-1 -1 -2 -2 -2 -3 -3 -2 -2 -2 -1 -1 -1 -1 -1 -1 -1 -1 -1 -1 -1 -1 -1 -1 -2 -2 -2 -2 -2 -2 -1 -0 0 0 0 0 -0 -1 -1 -2 -2 -1 -1 -1 -1 -1 -0 -0 -0 0 1 1 0 1 1 2 2 2 3 3 3 3 3 4 3 3 2 3 3
-1 -2 -2 -3 -3 -3 -3 -3 -2 -2 -1 -1 -1 -1 -1 -1 -1 -1 -1 -1 -1 -1 -1 -2 -2 -2 -2 -2 -1 -1 -0 1 1 1 0 0 0 -0 -1 -1 -1 -1 -1 -1 -2 -1 -0 -0 -0 -0 0 0 0 0 1 1 1 1 2 3 3 2 2 3 3 2 1 2 3
-1 -1 -2 -3 -3 -4 -3 -3 -3 -2 -1 -0 -0 -1 -1 -1 -1 -1 -1 -1 -1 -1 -2 -2 -2 -2 -2 -2 -1 -1 0 0 0 0 0 0 0 -0 -0 -1 -1 -1 -1 -1 -2 -1 -1 -0 -1 -1 -1 -0 -0 0 0 1 0 0 1 1 1 1 0 1 2 1 0 0 1
Height
5652 5655 5657 5659 5661 5663 5664 5665 5665 5667 5669 5672 5675 5677 5680 5682 5684 5685 5686 5687 5688 5690 5691 5692 5694 5695 5696 5698 5700 5701 5702 5703 5705 5707 5708 5710 5712 5713 5715 5716 5718 5719 5720 5721 5723 5725 5726 5728 5730 5730 5731 5732 5733 5735 5736 5737 5739 5740 5741 5742 5743 5745 5746 5746 5747 5748 5749 5749 5750
5649 5651 5654 5656 5658 5660 5662 5663 5665 5666 5668 5670 5672 5674 5677 5680 5681 5682 5682 5684 5685 5686 5688 5689 5691 5692 5693 5695 5696 5697 5699 5700 5702 5704 5706 5707 5709 5710 5712 5713 5715 5716 5717 5718 5720 5721 5723 5724 5726 5726 5727 5729 5730 5731 5732 5733 5735 5736 5738 5739 5740 5741 5742 5743 5744 5745 5746 5746 5747
5647 5649 5651 5654 5656 5658 5660 5662 5664 5665 5666 5668 5669 5671 5674 5676 5677 5678 5679 5680 5681 5683 5685 5686 5687 5688 5689 5691 5692 5694 5696 5697 5699 5701 5702 5704 5706 5707 5709 5710 5711 5713 5714 5715 5716 5718 5719 5721 5722 5723 5724 5725 5726 5728 5730 5731 5731 5733 5734 5735 5736 5738 5739 5740 5741 5741 5742 5743 5744
5648 5649 5651 5653 5655 5656 5658 5660 5662 5663 5665 5666 5667 5669 5671 5672 5673 5674 5675 5676 5678 5681 5682 5683 5684 5685 5686 5687 5689 5691 5692 5694 5696 5698 5699 5701 5702 5704 5705 5707 5708 5710 5711 5712 5713 5715 5716 5717 5719 5720 5721 5722 5723 5724 5725 5726 5728 5729 5731 5731 5733 5734 5735 5736 5737 5738 5739 5740 5740
5647 5648 5650 5651 5653 5654 5656 5658 5660 5661 5663 5663 5665 5666 5668 5669 5670 5671 5671 5673 5675 5677 5679 5680 5681 5682 5683 5685 5686 5688 5689 5691 5693 5694 5696 5698 5699 5701 5702 5704 5705 5706 5708 5709 5711 5712 5713 5714 5715 5716 5717 5719 5720 5721 5722 5723 5724 5726 5727 5728 5729 5731 5732 5733 5734 5735 5736 5736 5737
5644 5645 5647 5648 5650 5652 5654 5656 5658 5659 5660 5661 5662 5663 5664 5666 5666 5667 5668 5670 5671 5673 5676 5678 5679 5680 5680 5681 5683 5684 5686 5687 5689 5691 5692 5694 5696 5697 5699 5701 5702 5703 5705 5706 5707 5709 5710 5711 5712 5713 5714 5715 5717 5717 5718 5720 5721 5722 5723 5724 5726 5727 5728 5729 5730 5731 5732 5733 5734
5640 5641 5643 5645 5646 5648 5651 5653 5655 5656 5656 5657 5658 5659 5660 5661 5663 5664 5666 5667 5668 5670 5672 5675 5677 5678 5679 5679 5680 5681 5683 5684 5686 5687 5689 5691 5693 5694 5696 5697 5698 5700 5701 5703 5704 5706 5706 5708 5709 5710 5711 5711 5713 5715 5716 5716 5717 5719 5720 5721 5722 5723 5725 5726 5726 5727 5729 5730 5730
5636 5637 5639 5641 5643 5645 5647 5649 5651 5652 5653 5654 5654 5655 5656 5658 5659 5661 5662 5663 5665 5666 5668 5671 5673 5675 5676 5677 5678 5679 5680 5681 5682 5684 5686 5687 5689 5691 5692 5694 5695 5696 5698 5699 5701 5702 5703 5704 5705 5706 5707 5708 5710 5711 5713 5713 5714 5716 5717 5718 5718 5720 5721 5721 5723 5724 5725 5726 5727
5632 5634 5636 5637 5639 5641 5643 5645 5647 5648 5649 5649 5650 5651 5652 5654 5656 5657 5658 5660 5661 5662 5664 5666 5669 5671 5673 5675 5676 5677 5678 5679 5680 5681 5682 5684 5686 5688 5689 5691 5692 5693 5694 5696 5697 5698 5700 5701 5702 5703 5704 5705 5706 5707 5708 5710 5711 5712 5713 5714 5715 5716 5717 5718 5719 5720 5721 5723 5723
5628 5630 5632 5634 5636 5638 5640 5641 5643 5644 5645 5645 5646 5647 5648 5650 5652 5653 5655 5656 5657 5659 5661 5662 5665 5667 5669 5671 5673 5674 5676 5676 5677 5678 5680 5681 5683 5685 5686 5687 5689 5690 5691 5692 5693 5695 5696 5697 5698 5699 5700 5701 5702 5704 5705 5706 5707 5708 5709 5710 5711 5713 5714 5715 5716 5717 5718 5719 5720
5625 5626 5628 5630 5632 5634 5636 5638 5639 5640 5641 5641 5642 5643 5645 5646 5648 5649 5650 5652 5654 5655 5656 5658 5660 5662 5665 5667 5669 5671 5673 5674 5675 5676 5677 5679 5680 5681 5683 5684 5686 5686 5688 5689 5690 5691 5692 5694 5695 5696 5697 5698 5699 5700 5701 5702 5704 5705 5706 5707 5708 5709 5710 5711 5712 5713 5714 5715 5716
5621 5623 5625 5627 5629 5631 5632 5634 5636 5637 5638 5639 5639 5640 5641 5642 5644 5645 5646 5648 5649 5651 5652 5653 5656 5658 5661 5663 5665 5668 5670 5671 5672 5673 5675 5676 5677 5679 5680 5681 5682 5683 5684 5685 5686 5688 5689 5690 5691 5692 5693 5694 5696 5697 5698 5699 5700 5701 5702 5704 5705 5706 5707 5707 5708 5710 5711 5712 5712
5618 5620 5622 5623 5625 5627 5629 5631 5632 5633 5635 5636 5637 5638 5638 5639 5640 5641 5642 5644 5645 5646 5647 5649 5651 5654 5656 5658 5661 5664 5666 5668 5669 5670 5672 5673 5675 5676 5677 5678 5679 5680 5681 5682 5683 5684 5686 5686 5688 5689 5690 5691 5692 5693 5694 5695 5696 5697 5699 5701 5702 5702 5703 5704 5704 5706 5707 5708 5709
5615 5617 5619 5621 5622 5624 5626 5627 5629 5630 5632 5633 5634 5635 5636 5636 5637 5638 5639 5640 5641 5642 5644 5646 5648 5650 5652 5655 5657 5660 5662 5664 5665 5667 5668 5670 5671 5672 5674 5675 5676 5676 5677 5678 5680 5681 5682 5683 5684 5685 5686 5687 5688 5689 5691 5691 5693 5694 5696 5697 5698 5698 5699 5700 5701 5702 5703 5704 5704
5613 5614 5616 5617 5619 5621 5622 5624 5625 5627 5628 5630 5631 5632 5634 5634 5635 5636 5637 5638 5638 5640 5641 5644 5646 5647 5649 5651 5653 5656 5657 5659 5661 5663 5664 5666 5667 5668 5670 5671 5672 5673 5674 5675 5676 5677 5678 5679 5680 5681 5683 5684 5685 5686 5686 5688 5689 5690 5691 5692 5694 5695 5695 5696 5697 5698 5699 5700 5700
5610 5611 5613 5614 5616 5618 5619 5621 5622 5624 5625 5627 5628 5629 5631 5632 5633 5634 5635 5636 5637 5638 5640 5643 5644 5644 5646 5648 5650 5651 5653 5654 5656 5658 5660 5661 5663 5664 5666 5667 5668 5669 5670 5671 5672 5673 5674 5675 5676 5678 5679 5680 5681 5682 5683 5684 5685 5686 5687 5688 5689 5690 5691 5692 5693 5694 5695 5696 5696
5607 5609 5610 5611 5613 5615 5616 5617 5619 5621 5622 5623 5625 5626 5627 5628 5629 5631 5632 5633 5634 5636 5637 5640 5640 5641 5642 5645 5646 5647 5649 5650 5651 5653 5655 5656 5658 5660 5661 5662 5663 5664 5666 5667 5668 5669 5670 5671 5672 5674 5675 5676 5677 5678 5679 5680 5681 5682 5683 5684 5685 5686 5687 5689 5690 5690 5691 5691 5692
5605 5606 5607 5609 5611 5612 5613 5614 5616 5617 5619 5620 5621 5622 5624 5625 5626 5627 5629 5630 5631 5632 5634 5636 5636 5637 5639 5641 5642 5643 5645 5646 5647 5648 5650 5651 5653 5655 5656 5657 5658 5660 5661 5662 5663 5665 5666 5667 5668 5670 5671 5672 5673 5674 5675 5676 5677 5678 5679 5680 5681 5682 5684 5685 5686 5686 5687 5687 5688
5602 5603 5605 5606 5607 5608 5610 5611 5613 5614 5616 5617 5618 5619 5620 5621 5623 5624 5625 5626 5628 5629 5630 5631 5633 5634 5635 5637 5638 5639 5641 5642 5643 5644 5645 5646 5648 5650 5651 5652 5653 5655 5656 5657 5659 5660 5661 5663 5664 5666 5666 5667 5668 5669 5670 5671 5673 5674 5675 5676 5677 5679 5680 5681 5681 5682 5683 5683 5684
5599 5600 5602 5603 5604 5605 5606 5608 5609 5611 5612 5613 5614 5616 5617 5618 5619 5620 5622 5623 5624 5625 5627 5628 5629 5631 5632 5633 5634 5636 5637 5638 5639 5640 5641 5642 5644 5645 5646 5647 5648 5650 5651 5652 5654 5655 5656 5658 5659 5661 5662 5663 5664 5665 5666 5667 5669 5670 5671 5672 5674 5675 5676 5676 5677 5678 5679 5679 5680
5596 5597 5599 5600 5601 5602 5604 5605 5606 5607 5608 5610 5611 5612 5613 5614 5615 5616 5618 5619 5620 5621 5623 5625 5626 5627 5628 5630 5631 5632 5633 5634 5635 5636 5637 5638 5639 5640 5641 5642 5643 5644 5646 5647 5649 5650 5651 5653 5654 5656 5657 5658 5660 5661 5662 5663 5665 5666 5667 5668 5670 5671 5671 5672 5673 5673 5674 5675 5676
5594 5595 5596 5597 5598 5599 5601 5602 5603 5604 5605 5606 5607 5608 5609 5610 5611 5613 5614 5615 5616 5618 5620 5621 5622 5623 5625 5626 5627 5628 5629 5630 5631 5632 5632 5633 5635 5636 5636 5637 5639 5640 5641 5642 5644 5645 5646 5648 5649 5651 5652 5653 5655 5656 5657 5659 5660 5661 5663 5664 5665 5666 5666 5667 5668 5669 5669 5670 5671
5591 5592 5593 5594 5595 5596 5597 5599 5600 5601 5602 5603 5604 5605 5606 5607 5608 5610 5611 5612 5613 5614 5615 5616 5617 5619 5621 5622 5623 5624 5625 5626 5627 5628 5628 5629 5630 5631 5632 5633 5634 5635 5636 5638 5639 5641 5642 5643 5645 5646 5647 5649 5650 5651 5652 5654 5655 5656 5657 5658 5660 5661 5661 5662 5663 5664 5665 5666 5666
5588 5589 5591 5591 5593 5594 5595 5596 5597 5598 5600 5601 5601 5602 5603 5604 5605 5606 5607 5609 5610 5610 5611 5612 5613 5615 5616 5617 5619 5620 5621 5622 5623 5624 5625 5626 5626 5627 5628 5629 5630 5631 5632 5633 5635 5636 5638 5639 5640 5641 5643 5644 5645 5646 5647 5649 5650 5651 5652 5653 5654 5655 5656 5657 5658 5659 5660 5661 5662
5586 5587 5588 5589 5590 5591 5592 5593 5595 5596 5596 5597 5598 5600 5601 5601 5602 5603 5604 5605 5606 5607 5608 5609 5610 5611 5612 5613 5615 5616 5617 5618 5619 5620 5621 5622 5623 5624 5624 5625 5626 5627 5628 5629 5631 5632 5634 5635 5636 5637 5638 5640 5641 5642 5643 5644 5645 5646 5647 5648 5649 5650 5651 5652 5653 5654 5655 5656 5657
5584 5585 5586 5587 5588 5589 5590 5591 5592 5593 5594 5595 5596 5597 5598 5599 5600 5600 5601 5602 5603 5604 5604 5606 5606 5607 5608 5610 5611 5612 5613 5614 5615 5616 5617 5618 5619 5620 5621 5621 5622 5623 5624 5626 5627 5628 5629 5630 5631 5633 5634 5635 5636 5638 5639 5640 5641 5641 5642 5643 5644 5645 5646 5647 5648 5649 5651 5652 5652
5582 5583 5584 5585 5586 5586 5587 5588 5589 5590 5591 5592 5593 5594 5595 5596 5596 5597 5598 5599 5600 5600 5601 5602 5603 5604 5605 5606 5607 5608 5609 5610 5611 5612 5613 5614 5615 5616 5617 5618 5618 5619 5621 5622 5623 5624 5625 5626 5627 5629 5630 5631 5632 5633 5635 5636 5636 5637 5638 5639 5640 5641 5642 5643 5644 5645 5646 5647 5648
5580 5581 5581 5582 5583 5584 5585 5586 5587 5588 5588 5589 5590 5591 5592 5592 5593 5594 5595 5596 5596 5597 5598 5599 5600 5601 5601 5602 5603 5604 5605 5606 5607 5608 5609 5610 5611 5612 5613 5614 5615 5616 5617 5618 5619 5620 5621 5622 5623 5625 5626 5627 5628 5629 5630 5631 5632 5633 5634 5635 5636 5637 5638 5639 5640 5641 5642 5642 5643
5578 5579 5580 5581 5581 5582 5583 5584 5585 5585 5586 5587 5587 5588 5589 5590 5591 5591 5592 5592 5593 5594 5595 5596 5596 5597 5598 5599 5600 5601 5601 5602 5603 5604 5605 5606 5607 5608 5609 5610 5611 5612 5613 5614 5615 5616 5617 5618 5620 5621 5622 5623 5624 5625 5626 5627 5628 5629 5630 5631 5632 5633 5634 5635 5636 5636 5637 5638 5638
5576 5577 5578 5578 5579 5580 5581 5581 5582 5583 5584 5584 5585 5586 5586 5587 5588 5588 5589 5590 5590 5591 5592 5592 5593 5594 5595 5596 5596 5597 5598 5599 5600 5601 5601 5602 5603 5604 5605 5606 5607 5608 5609 5610 5611 5612 5613 5614 5616 5617 5618 5619 5620 5621 5621 5622 5623 5625 5626 5627 5628 5629 5629 5630 5631 5632 5633 5633 5634
5574 5575 5576 5576 5577 5578 5579 5579 5580 5581 5581 5582 5583 5583 5584 5585 5585 5586 5586 5587 5588 5588 5589 5590 5591 5591 5592 5593 5593 5594 5595 5596 5596 5597 5598 5599 5600 5601 5601 5602 5603 5604 5605 5606 5607 5608 5609 5610 5611 5612 5614 5615 5616 5616 5617 5618 5620 5621 5622 5623 5624 5624 5625 5626 5627 5627 5628 5629 5630
5572 5573 5574 5575 5575 5576 5576 5577 5578 5579 5579 5580 5581 5581 5581 5582 5582 5583 5584 5585 5585 5586 5587 5587 5588 5589 5589 5590 5591 5592 5592 5593 5594 5594 5595 5596 5596 5597 5598 5599 5600 5600 5601 5602 5603 5604 5605 5606 5607 5608 5609 5610 5611 5612 5613 5614 5615 5616 5617 5618 5619 5620 5621 5621 5622 5623 5624 5624 5625
5570 5571 5572 5572 5573 5574 5575 5575 5576 5576 5577 5578 5578 5579 5579 5580 5580 5581 5581 5582 5583 5583 5584 5585 5586 5586 5587 5588 5588 5589 5590 5590 5591 5591 5592 5593 5593 5594 5595 5596 5596 5597 5597 5598 5599 5600 5601 5602 5603 5604 5605 5606 5607 5608 5609 5610 5611 5612 5613 5614 5614 5615 5616 5617 5617 5618 5619 5620 5621
5568 5569 5570 5571 5571 5572 5572 5573 5574 5574 5575 5575 5576 5576 5576 5577 5578 5578 5579 5580 5580 5581 5581 5582 5583 5584 5584 5585 5586 5586 5587 5587 5588 5589 5589 5590 5590 5591 5591 5592 5592 5593 5594 5595 5595 5596 5597 5598 5599 5600 5601 5601 5602 5603 5604 5605 5606 5607 5608 5609 5610 5611 5611 5612 5613 5614 5615 5616 5616
5567 5567 5568 5569 5569 5570 5570 5571 5571 5572 5572 5573 5573 5573 5574 5575 5575 5576 5576 5577 5577 5578 5579 5579 5580 5581 5581 5582 5583 5583 5584 5584 5585 5585 5586 5586 5587 5587 5588 5588 5589 5589 5590 5591 5591 5591 5592 5593 5594 5595 5596 5597 5598 5599 5600 5601 5602 5603 5604 5605 5605 5606 5607 5608 5609 5610 5611 5611 5612
5565 5566 5566 5566 5567 5568 5568 5569 5569 5570 5570 5570 5571 5571 5571 5572 5572 5573 5574 5574 5575 5576 5576 5576 5577 5578 5578 5579 5580 5580 5581 5581 5581 5582 5582 5583 5583 5584 5584 5585 5585 5586 5586 5586 5587 5587 5588 5589 5590 5591 5591 5592 5593 5594 5596 5596 5598 5599 5599 5600 5601 5602 5603 5604 5605 5606 5606 5607 5608
5563 5563 5564 5564 5565 5565 5566 5566 5567 5567 5567 5568 5568 5568 5569 5569 5570 5570 5571 5571 5572 5573 5573 5574 5574 5575 5576 5576 5576 5577 5577 5578 5578 5579 5579 5579 5580 5580 5581 5581 5581 5581 5582 5582 5582 5583 5583 5584 5586 5586 5587 5588 5589 5590 5591 5592 5593 5594 5595 5596 5597 5598 5599 5600 5601 5601 5602 5603 5603
5561 5561 5562 5562 5563 5563 5563 5564 5564 5565 5565 5565 5565 5566 5566 5566 5567 5567 5568 5568 5569 5570 5570 5571 5571 5572 5572 5573 5573 5574 5574 5575 5575 5576 5576 5576 5576 5576 5576 5577 5577 5577 5577 5578 5578 5579 5579 5580 5581 5582 5583 5583 5585 5586 5586 5588 5589 5590 5591 5592 5593 5594 5595 5596 5597 5597 5598 5599 5600
5559 5559 5560 5560 5561 5561 5561 5561 5562 5562 5562 5562 5562 5563 5563 5563 5564 5564 5565 5565 5566 5566 5567 5568 5568 5569 5570 5570 5571 5571 5572 5572 5572 5572 5572 5572 5572 5572 5573 5573 5573 5573 5573 5574 5574 5575 5575 5576 5577 5578 5579 5579 5580 5581 5582 5584 5585 5586 5587 5588 5589 5590 5591 5592 5593 5594 5595 5595 5596
5557 5558 5558 5558 5558 5559 5559 5559 5559 5560 5560 5560 5560 5560 5560 5561 5561 5561 5562 5562 5563 5564 5564 5565 5566 5566 5567 5567 5568 5569 5569 5569 5569 5569 5569 5569 5569 5569 5569 5569 5569 5569 5569 5570 5571 5571 5572 5572 5573 5574 5575 5576 5577 5578 5579 5580 5581 5583 5584 5585 5586 5587 5588 5589 5590 5591 5591 5592 5593
5556 5556 5556 5556 5556 5556 5556 5557 5557 5557 5557 5557 5557 5557 5557 5558 5558 5559 5559 5560 5561 5561 5561 5562 5563 5563 5564 5565 5566 5566 5566 5566 5566 5566 5566 5565 5565 5565 5566 5566 5566 5566 5566 5567 5567 5568 5568 5569 5570 5571 5572 5573 5574 5575 5576 5577 5579 5580 5581 5582 5583 5584 5585 5586 5587 5588 5589 5589 5590